Погода в Супсехе

Россия / Краснодарский край     44°51′32″N   37°21′31″E
темп.,
°C
ветер,
м/с
пор.,
м/с
влажн.,
%
обл.,
%
осадки,
мм/ч
давл.,
гПа
погр.,
м
14 мая, пт
пт1400:00+17ююв22752 0.0 100911
03:00+16ююв33806 0.0 100917
06:00+15ю348731 0.0 100935
09:00+15ююв228467 0.0 101011
12:00+16юз22775 0.0 101124
15:00+17з11625 0.0 101119
18:00+18зсз33620 0.0 101121
21:00+17ссв33660 0.0 101215
15 мая, сб
сб1500:00+15зсз45780 0.0 101247
03:00+15ссз338717 0.0 101333
06:00+15ссз2388100 0.0 101330
09:00+16с447761 0.0 101434
12:00+17сз447431 0.0 101425
15:00+18сз56735 0.0 101340
18:00+19с78735 0.0 101257
21:00+17с6677100 0.0 101241
16 мая, вс
вс1600:00+16ссв5582100 0.0 101040
03:00+16вюв348897 0.3 101151
06:00+15с33880 0.0 100931
09:00+17всв3387100 0.0 100816
12:00+17юз3386100 0.0 100727
15:00+19ссв118798 2.8 100621
18:00+18зюз34905 0.4 100331
21:00+19ссв5589100 0.4 100222
17 мая, пн
пн1700:00+18ююз469499 0.2 100243
03:00+15ююв2299100 0.2 100222
06:00+15ю4498100 0.0 100464
09:00+15ю7994100 0.0 1006209
12:00+15ююв6894100 0.0 1008205
15:00+15ююв6895100 0.0 1009232
18:00+16юв78924 0.0 1009171
21:00+15юв8129253 0.3 1011361
18 мая, вт
вт1800:00+15юв789582 0.1 1011194
03:00+15ююв559229 0.2 1011148
06:00+15ююв56945 1.8 1013199
09:00+15ююв67930 1.9 1013194
12:00+16ююв78900 0.0 1015192
15:00+16ю68900 0.0 1015179
18:00+16ююв68870 0.0 1014143
21:00+16ююв67870 0.0 1015114